This is the latest recevied weather packets stored in our database for station/object W3EJE-13. If no packets are shown the sender has not sent any weather packets the latest 10 day(s).
| Time | Temp. | Humidity | Pressure | Rain* | Wind** | Luminosity | Snow |
|---|---|---|---|---|---|---|---|
| 1777064089 | 23.89° C | 49% | 1010.3 hPa | 0 mm | - | 360 W/m² | - |
| 1777063788 | 23.89° C | 52% | 1010.5 hPa | 0 mm | - | 361 W/m² | - |
| 1777063478 | 23.33° C | 51% | 1010.6 hPa | 0 mm | - | 360 W/m² | - |
| 1777063174 | 23.89° C | 52% | 1010.6 hPa | 0 mm | - | 193 W/m² | - |
| 1777062871 | 23.89° C | 50% | 1010.7 hPa | 0 mm | - | 327 W/m² | - |
| 1777062567 | 24.44° C | 48% | 1010.6 hPa | 0 mm | - | 161 W/m² | - |
| 1777062261 | 24.44° C | 45% | 1010.5 hPa | 0 mm | - | 451 W/m² | - |
| 1777061958 | 23.89° C | 44% | 1010.6 hPa | 0 mm | - | 435 W/m² | - |
| 1777061649 | 24.44° C | 47% | 1010.2 hPa | 0 mm | - | 425 W/m² | - |
| 1777061345 | 24.44° C | 48% | 1010.7 hPa | 0 mm | - | 402 W/m² | - |
| 1777061040 | 24.44° C | 51% | 1010.6 hPa | 0 mm | - | 521 W/m² | - |
| 1777060736 | 23.89° C | 45% | 1010.7 hPa | 0 mm | - | 171 W/m² | - |
| 1777060430 | 25° C | 49% | 1010.7 hPa | 0 mm | - | 161 W/m² | - |
| 1777060128 | 25° C | 47% | 1010.8 hPa | 0 mm | - | 539 W/m² | - |
| 1777059824 | 24.44° C | 46% | 1010.6 hPa | 0 mm | - | 548 W/m² | - |
| 1777059520 | 25° C | 46% | 1010.6 hPa | 0 mm | - | 605 W/m² | - |
| 1777059217 | 25° C | 47% | 1010.8 hPa | 0 mm | - | 659 W/m² | - |
| 1777058917 | 25° C | 47% | 1010.8 hPa | 0 mm | - | 669 W/m² | - |
| 1777058611 | 24.44° C | 49% | 1011.1 hPa | 0 mm | - | 662 W/m² | - |
| 1777058309 | 24.44° C | 50% | 1011.1 hPa | 0 mm | - | 666 W/m² | - |
| 1777058005 | 24.44° C | 52% | 1011 hPa | 0 mm | - | 655 W/m² | - |
| 1777057705 | 24.44° C | 51% | 1010.9 hPa | 0 mm | - | 681 W/m² | - |
| 1777057401 | 24.44° C | 50% | 1011.2 hPa | 0 mm | - | 176 W/m² | - |
| 1777057096 | 23.33° C | 49% | 1011.2 hPa | 0 mm | - | 678 W/m² | - |
| 1777056791 | 23.89° C | 53% | 1011.4 hPa | 0 mm | - | 685 W/m² | - |
* Rain latest hour (hover to see other rain measurements)
** Current wind speed in m/s (hover to see current wind gust speed)